This is the latest recevied weather packets stored in our database for station/object WP3OF-1. If no packets are shown the sender has not sent any weather packets the latest 10 day(s).
| Time | Temp. | Humidity | Pressure | Rain* | Wind** | Luminosity | Snow |
|---|---|---|---|---|---|---|---|
| 1778015467 | 27.78° C | 75% | 1017.2 hPa | 0 mm | - | - | - |
| 1778015164 | 27.78° C | 73% | 1017 hPa | 0 mm | - | - | - |
| 1778014861 | 27.78° C | 76% | 1016.9 hPa | 0 mm | - | - | - |
| 1778014559 | 27.78° C | 77% | 1016.9 hPa | 0 mm | - | - | - |
| 1778014256 | 27.78° C | 77% | 1017 hPa | 0 mm | - | - | - |
| 1778013953 | 27.78° C | 77% | 1017 hPa | 0 mm | - | - | - |
| 1778013650 | 28.33° C | 77% | 1017 hPa | 0 mm | - | - | - |
| 1778013347 | 27.78° C | 78% | 1017.2 hPa | 0 mm | - | - | - |
| 1778013044 | 27.78° C | 78% | 1017.2 hPa | 0 mm | - | - | - |
| 1778012740 | 28.33° C | 77% | 1017.2 hPa | 0 mm | - | - | - |
| 1778012436 | 28.33° C | 76% | 1017.2 hPa | 0 mm | - | - | - |
| 1778012133 | 28.33° C | 76% | 1017.1 hPa | 0 mm | - | - | - |
| 1778011831 | 28.89° C | 75% | 1017.2 hPa | 0 mm | - | - | - |
| 1778011528 | 28.89° C | 74% | 1017.1 hPa | 0 mm | - | - | - |
| 1778011225 | 28.33° C | 75% | 1017.2 hPa | 0 mm | - | - | - |
| 1778010921 | 28.33° C | 75% | 1017.3 hPa | 0 mm | - | - | - |
| 1778010619 | 28.89° C | 75% | 1017 hPa | 0 mm | - | - | - |
| 1778010315 | 28.89° C | 74% | 1017.3 hPa | 0 mm | - | - | - |
| 1778010011 | 28.33° C | 76% | 1017.4 hPa | 0 mm | - | - | - |
| 1778009708 | 28.89° C | 74% | 1017.1 hPa | 0 mm | - | - | - |
| 1778009406 | 28.89° C | 74% | 1016.9 hPa | 0 mm | - | - | - |
| 1778009104 | 28.89° C | 74% | 1017.3 hPa | 0 mm | - | - | - |
| 1778008801 | 28.89° C | 75% | 1017.3 hPa | 0 mm | - | - | - |
| 1778008499 | 28.89° C | 75% | 1017 hPa | 0 mm | - | - | - |
| 1778008197 | 28.33° C | 77% | 1017.1 hPa | 0 mm | - | - | - |
* Rain latest hour (hover to see other rain measurements)
** Current wind speed in m/s (hover to see current wind gust speed)